RH
11 10 9 8 7 5 4 3 3 2 2 3 2 2 3 3 3 2 5 9 7 6 7 7 7 9 9 11 13 13 12 8 4 4 4 3 3 3 3 3 3 3 3 3 3 2 3 2 3 2 3 2
6 6 5 4 4 3 3 3 2 3 3 3 3 3 3 3 3 4 3 4 4 4 4 4 4 5 4 5 6 6 6 5 5 4 4 4 4 4 4 4 3 4 3 4 3 3 3 2 3 2 3 2
5 3 3 3 3 3 3 3 3 3 3 3 4 3 4 4 4 4 4 4 5 5 5 5 5 5 5 5 5 5 5 5 5 5 5 5 5 5 5 5 4 5 4 4 4 4 4 3 3 3 4 2
3 3 4 3 3 3 3 4 4 4 4 4 4 4 4 5 4 5 5 5 5 5 6 6 6 6 6 6 6 6 6 6 6 6 6 5 6 6 5 5 5 5 5 5 5 5 4 4 4 4 5 3
4 4 3 4 4 4 4 4 4 4 5 5 5 5 5 5 6 6 6 6 6 6 7 7 7 7 7 7 7 7 7 7 6 7 7 6 7 6 6 6 6 6 6 6 5 6 5 5 5 4 5 4
4 4 4 5 4 5 5 5 5 6 6 6 6 6 6 6 7 7 7 7 7 7 8 8 8 7 8 8 7 7 7 7 7 7 7 7 6 6 6 5 6 6 6 6 6 6 5 5 6 5 6 5
5 5 5 5 5 6 6 6 7 7 7 7 7 7 7 8 8 8 8 8 8 8 8 8 9 8 8 8 8 8 8 8 8 8 8 7 7 7 7 7 7 7 7 7 6 7 6 7 6 6 6 5
6 6 6 6 6 7 7 8 8 8 8 8 8 8 8 9 9 9 9 9 10 10 10 10 9 9 9 9 9 9 8 9 8 8 8 8 8 8 8 8 8 8 8 8 8 8 7 8 7 7 7 5
6 7 7 8 8 8 9 9 9 9 9 9 9 9 10 10 10 10 10 11 10 11 11 11 10 11 10 10 10 10 10 9 9 9 9 9 9 9 9 9 9 9 9 9 9 8 8 8 8 7 8 8
7 8 8 9 9 9 9 9 10 10 10 11 10 10 11 11 11 11 11 12 12 12 12 12 12 12 12 12 11 11 11 11 11 10 10 10 10 10 10 10 10 10 10 10 9 9 10 9 9 9 7 9
8 9 10 10 9 10 11 11 11 11 12 11 11 12 12 12 12 12 13 13 13 13 13 13 13 13 13 13 13 13 13 12 12 12 12 12 11 11 11 11 11 11 11 10 11 10 10 9 10 10 8 9
10 11 11 10 11 12 12 12 14 13 13 12 13 13 13 13 14 14 14 14 15 15 15 15 15 15 15 14 15 14 14 14 13 13 13 13 13 12 12 12 12 12 12 11 12 11 11 11 10 10 10 9
12 12 11 11 13 14 12 14 15 13 13 13 14 14 14 15 15 16 16 16 16 16 16 16 16 16 16 16 16 15 15 15 15 15 15 14 14 14 14 14 13 13 13 13 13 13 12 12 11 11 11 10
12 11 10 12 14 14 14 15 14 13 15 14 15 15 15 16 16 17 17 17 17 17 17 17 17 17 17 17 17 17 16 16 16 16 15 15 15 15 15 15 15 14 14 14 13 14 13 12 13 11 12 12
11 11 11 12 14 15 15 15 14 15 16 15 16 16 17 17 17 18 18 18 17 18 18 18 18 18 17 17 17 17 17 17 17 16 16 16 16 16 16 15 16 15 15 16 15 14 14 13 14 12 13 13
12 12 13 12 14 17 16 14 16 17 17 17 17 17 18 18 18 18 18 18 18 18 19 19 18 18 18 18 18 18 17 17 17 17 17 16 16 16 16 16 16 16 16 16 16 15 16 15 14 15 13 16
12 12 13 12 15 17 15 16 19 20 19 18 18 18 18 19 18 19 19 19 19 19 19 19 19 19 19 18 18 18 18 18 18 18 18 17 18 18 18 19 17 18 19 17 18 16 16 19 16 16 14 18
13 12 12 13 16 17 15 19 22 22 21 18 17 18 18 19 19 19 19 19 20 20 20 20 20 20 19 19 19 18 18 18 19 18 18 19 19 19 19 19 18 19 21 18 19 18 18 24 20 19 16 18
15 13 12 14 17 16 16 21 24 24 22 19 19 18 18 18 18 19 19 19 20 20 20 21 21 20 20 20 19 19 20 18 20 19 19 20 21 25 24 22 22 21 23 21 20 20 22 26 23 25 20 22
17 16 15 15 16 15 16 21 24 25 22 21 20 19 18 19 18 19 19 19 20 20 20 23 24 23 21 21 20 20 20 20 22 21 19 19 21 30 32 29 30 28 26 23 21 20 21 24 25 30 23 25
20 20 19 18 18 17 17 20 24 25 23 22 21 20 20 20 19 20 20 20 20 21 21 23 26 25 21 21 21 20 21 23 23 21 22 23 20 23 32 36 35 35 32 25 24 23 20 22 26 31 26 28
21 21 21 22 23 21 20 21 25 27 26 24 24 24 23 21 21 21 21 21 21 21 21 23 26 25 21 21 22 22 24 25 22 21 25 30 25 19 27 36 34 33 31 25 27 29 25 24 27 30 24 32
23 23 25 26 28 27 26 25 26 28 28 27 27 27 25 22 22 22 23 23 22 22 23 24 24 23 22 21 24 28 30 29 24 21 22 27 26 22 23 27 28 27 26 29 33 34 31 26 27 30 24 33
28 30 31 30 31 31 31 31 30 28 27 29 29 28 25 23 23 23 24 24 24 23 24 27 26 23 21 21 24 29 34 35 29 23 22 22 23 26 29 29 27 24 27 36 39 37 37 31 27 30 27 34
31 35 34 32 33 31 31 33 32 30 27 28 29 26 25 24 24 24 24 25 25 25 24 27 29 26 23 22 23 26 31 33 28 23 23 25 24 24 31 37 31 24 30 35 31 30 35 36 34 33 31 35
29 31 32 32 32 30 30 32 32 30 28 26 25 25 25 25 25 25 26 26 26 26 25 27 31 30 26 24 23 25 27 25 24 23 22 25 31 30 29 34 29 23 30 30 24 25 28 30 33 40 42 41
27 27 28 29 30 30 29 30 30 28 28 26 23 25 26 26 26 25 26 27 26 27 27 27 30 31 31 29 26 26 26 24 22 24 23 23 31 36 33 32 30 25 26 27 26 28 28 24 26 36 45 46
24 24 27 29 30 30 29 30 30 28 28 25 23 25 26 26 27 26 27 27 28 28 28 28 28 30 33 33 29 29 32 31 26 23 24 23 24 30 33 34 37 31 25 26 27 26 26 27 27 29 32 35
22 26 31 34 34 33 32 32 32 31 28 25 26 27 27 26 26 27 27 28 28 28 28 29 29 29 31 32 30 30 34 35 31 26 24 24 23 24 28 31 37 34 25 24 26 26 26 27 30 29 26 28
21 27 32 35 36 35 34 33 33 33 30 29 30 27 25 25 26 27 28 28 29 29 29 29 30 30 29 30 30 30 32 33 33 31 27 26 24 24 25 28 35 37 31 28 26 26 27 27 29 29 28 30
23 29 33 34 34 34 33 32 31 30 29 30 32 28 25 25 25 25 26 28 29 30 31 30 30 31 30 30 30 30 31 32 32 33 31 28 25 27 28 28 32 38 41 40 31 26 26 27 29 29 30 32
Wind_Speed
10 10 11 12 13 13 14 14 15 15 15 15 16 16 16 17 17 17 17 17 17 18 19 18 18 18 18 18 18 18 18 18 18 18 18 18 18 18 18 18 19 19 19 19 19 20 19 19 20 20 21 22
10 11 12 13 13 14 14 15 15 16 16 16 16 16 16 17 17 17 18 18 18 17 18 18 18 17 17 17 17 17 17 17 17 18 18 18 18 18 18 18 18 18 19 19 19 19 19 19 20 20 21 22
11 11 12 13 14 14 15 15 15 16 16 16 16 16 17 17 17 17 17 18 17 17 17 17 17 17 16 16 16 16 16 17 17 17 17 17 18 18 18 18 18 19 19 19 19 19 18 19 20 21 22 22
13 13 13 14 14 15 15 16 16 16 16 16 17 16 17 17 17 17 17 17 17 17 16 16 16 16 16 15 15 15 16 16 17 17 17 17 18 18 17 18 19 19 19 20 19 19 19 20 21 22 22 23
14 14 15 15 16 16 16 16 16 16 16 17 17 17 17 17 17 17 17 16 17 16 16 16 15 15 15 15 15 15 15 16 16 16 16 17 17 17 16 17 18 19 19 20 20 20 20 21 22 23 23 23
15 16 16 17 17 17 17 16 16 16 17 17 17 17 17 17 17 17 17 16 16 16 15 15 14 14 14 14 14 14 14 15 15 15 16 16 15 16 16 17 18 19 20 20 21 21 22 23 23 23 23 23
17 17 18 18 18 18 17 17 17 17 17 17 17 17 16 16 16 16 16 15 15 15 14 14 13 13 13 13 13 13 14 14 15 15 15 15 16 16 17 19 20 20 21 21 21 22 23 23 23 23 23 23
18 19 18 18 18 18 18 17 17 17 17 16 16 16 16 15 15 15 15 14 14 14 14 13 13 13 13 13 13 13 14 14 14 15 16 16 17 18 19 21 21 22 22 23 23 23 23 23 23 23 23 23
19 19 19 18 18 18 18 17 17 16 16 15 15 15 15 14 14 15 14 14 13 13 13 13 13 13 13 13 12 13 13 14 14 15 16 17 18 19 20 21 21 22 22 23 23 23 23 23 23 23 23 23
19 19 19 18 18 18 17 17 17 16 16 15 15 15 14 14 14 14 13 13 13 12 12 12 13 13 13 12 12 13 13 13 14 14 15 16 17 18 18 19 20 20 21 21 21 22 22 22 22 22 22 22
19 19 19 18 18 18 17 17 17 16 16 15 15 15 14 14 13 13 13 12 12 12 12 12 12 12 12 12 12 13 13 13 14 14 15 16 16 17 17 17 18 19 19 20 20 20 21 21 21 21 21 20
19 19 19 19 18 17 18 17 16 16 16 15 15 14 14 14 13 13 12 12 12 11 11 11 11 11 11 11 12 12 13 13 14 15 15 15 16 16 17 17 17 18 19 19 19 20 20 20 20 20 19 19
20 20 20 19 18 17 18 17 17 17 16 16 15 14 14 13 13 12 12 11 11 11 11 10 10 11 11 11 12 12 12 13 13 14 14 15 15 16 16 16 16 17 18 18 19 19 19 19 19 19 19 18
20 20 20 20 19 18 18 17 18 17 16 16 15 14 13 13 13 12 11 11 11 10 10 10 10 10 10 10 10 11 11 12 12 13 13 14 15 15 16 16 16 17 17 18 18 18 18 18 18 18 18 17
21 21 21 20 20 19 18 18 18 17 16 16 15 14 13 13 12 12 11 11 11 10 10 9 9 9 9 9 9 10 10 11 11 12 12 13 13 14 15 16 16 16 17 17 17 17 17 17 16 16 15 14
21 21 21 21 20 19 19 19 18 17 16 16 15 15 14 13 13 12 12 11 11 10 10 9 9 9 9 9 9 9 10 10 10 11 11 12 13 13 14 15 15 15 16 16 16 16 16 15 15 14 13 12
22 22 21 21 20 19 20 19 17 16 16 16 16 15 14 14 13 13 12 11 11 10 10 9 9 9 8 8 9 9 9 10 10 10 11 11 12 12 13 13 14 15 15 15 15 15 15 13 13 13 12 9
22 22 21 21 19 19 20 18 16 16 16 17 17 16 15 14 14 13 12 11 11 10 10 9 9 8 8 8 8 8 8 9 9 9 9 10 10 10 11 12 13 14 13 14 14 13 13 10 10 11 10 8
24 23 22 21 19 19 19 17 16 15 16 17 16 16 15 14 14 13 12 11 11 10 9 9 8 8 7 7 7 7 7 8 7 7 8 8 8 7 9 10 11 12 12 12 12 12 11 8 9 8 7 6
25 24 23 22 20 20 19 17 16 15 16 16 16 16 15 14 14 13 12 11 10 10 9 8 7 6 7 7 7 7 6 7 6 6 6 7 7 5 4 6 7 8 9 10 11 12 11 8 8 6 5 5
27 25 24 23 22 21 20 19 16 15 15 15 15 15 15 14 14 13 12 11 10 9 9 8 7 7 6 7 7 6 6 6 5 5 5 5 6 6 4 3 4 4 6 9 10 11 11 9 7 4 4 4
29 27 25 23 23 23 22 21 18 15 15 15 15 15 15 15 14 13 12 11 10 10 9 9 8 8 7 7 7 6 6 5 5 5 5 4 3 6 5 2 2 3 5 8 7 8 9 7 5 3 2 3
30 28 25 23 22 23 23 22 20 18 17 17 16 16 16 16 14 14 13 12 12 11 11 10 10 10 9 8 8 8 8 7 6 5 5 5 3 3 4 2 2 4 6 6 5 5 5 4 3 2 2 3
30 26 23 22 22 22 23 22 22 22 21 19 18 19 19 17 16 16 15 14 14 14 13 13 12 12 11 10 10 10 10 9 8 6 5 5 4 3 1 1 2 5 7 4 3 2 2 2 2 1 2 3
30 27 24 23 22 22 22 22 22 24 24 23 22 23 21 20 19 18 18 17 17 17 16 15 14 14 14 13 12 12 11 11 10 8 7 6 4 3 3 3 1 5 6 2 2 3 4 5 4 2 3 6
34 32 28 25 23 23 22 21 24 25 26 27 26 25 24 22 21 21 20 20 20 20 19 18 17 17 17 16 14 13 12 12 11 10 9 8 7 5 4 4 3 3 3 2 3 4 4 4 6 5 5 8
36 35 32 29 25 24 22 20 23 26 25 27 27 27 26 25 23 24 23 23 24 23 23 22 21 19 18 18 17 15 14 14 13 12 11 10 9 7 6 6 5 3 0 2 4 4 4 3 3 4 6 8
40 37 33 30 26 23 21 19 21 25 27 29 29 28 28 27 26 26 26 26 27 26 26 25 24 23 20 20 20 18 15 15 15 15 13 12 11 10 8 7 7 6 4 3 3 4 5 3 3 3 2 3
43 36 30 27 26 24 22 21 20 22 26 29 29 29 29 29 28 28 29 29 29 29 29 28 27 27 25 24 23 21 18 16 17 17 16 15 14 13 11 8 8 9 9 7 5 4 5 4 4 5 4 7
44 38 31 27 26 24 22 20 20 21 23 24 25 30 31 29 29 30 30 31 31 31 31 31 30 29 29 28 27 25 23 20 19 19 19 18 17 16 14 11 9 10 12 11 10 9 8 8 8 7 7 7
44 39 32 29 28 26 23 21 21 23 23 21 21 26 30 30 31 32 33 33 33 33 33 33 32 31 31 31 30 29 28 26 24 22 22 22 20 18 17 15 13 10 11 11 12 14 14 14 14 12 9 6
Wind_Direction
159 157 155 152 149 146 143 142 140 137 134 132 129 127 123 120 116 111 106 102 103 103 99 95 92 90 89 88 85 82 79 77 75 73 71 69 68 66 64 62 60 57 55 52 50 49 46 47 46 46 49 49
162 160 157 153 149 147 145 143 141 138 134 131 128 126 123 120 116 114 110 106 104 103 102 99 96 92 90 88 86 83 79 76 73 71 68 65 63 61 60 58 56 54 52 49 47 46 45 45 45 46 47 47
161 160 157 153 151 148 147 144 141 139 135 131 127 124 122 119 115 113 110 107 104 101 99 97 94 91 88 85 82 80 77 74 70 68 66 63 61 59 57 56 54 53 50 48 45 43 42 43 42 43 44 45
161 159 156 155 152 150 148 145 142 138 134 130 126 123 121 118 114 110 107 105 101 97 94 91 90 86 82 79 77 75 73 71 67 65 63 61 60 57 56 54 52 50 48 45 43 41 39 39 39 40 41 42
164 160 158 156 153 151 148 145 143 138 134 130 126 125 121 119 114 110 106 103 100 96 92 89 87 84 81 78 74 72 69 67 64 61 58 56 55 54 52 50 48 45 43 40 38 36 36 37 37 37 37 38
164 162 160 157 154 152 149 146 143 139 135 131 128 126 122 119 115 110 106 103 101 97 94 91 87 84 81 77 73 69 65 63 60 58 55 53 51 49 47 46 45 41 39 37 35 33 33 34 35 35 36 36
163 162 161 159 156 152 150 148 143 139 135 132 130 126 121 118 115 111 107 104 101 98 95 91 88 84 79 75 71 66 63 59 57 55 52 49 47 45 43 43 42 39 37 35 33 32 32 32 32 32 33 34
165 163 163 160 158 154 151 148 143 140 135 132 131 125 121 118 116 112 107 105 101 97 94 90 86 81 77 73 68 65 61 57 53 51 47 44 42 40 39 39 39 37 35 33 32 30 29 29 28 29 30 32
169 166 164 161 159 156 152 149 144 140 136 133 130 124 120 118 114 111 108 105 101 96 93 89 83 78 74 70 66 62 59 55 51 48 45 42 41 39 38 37 37 36 35 33 31 29 27 26 26 25 26 27
174 170 167 164 161 157 154 151 146 142 138 134 130 125 121 118 114 111 108 104 100 96 91 85 80 76 71 67 63 60 57 54 52 49 47 44 43 42 39 38 36 35 34 33 31 28 26 24 24 23 23 23
176 173 171 168 164 159 156 152 148 144 141 138 132 127 123 120 116 113 110 105 101 95 90 85 79 75 70 66 62 58 54 53 52 50 49 47 47 45 42 41 38 35 33 32 30 27 25 23 23 23 22 21
177 177 175 171 167 163 160 155 151 149 145 141 136 132 128 124 120 116 112 107 102 97 92 87 81 75 70 66 62 59 55 53 51 50 48 48 47 46 45 42 39 37 34 31 29 25 23 21 21 21 21 19
181 181 179 175 170 168 165 159 156 154 148 144 141 137 134 129 124 120 117 112 106 101 96 90 84 78 72 68 65 61 58 55 53 51 48 47 47 46 45 42 40 38 35 32 29 25 22 20 19 19 18 17
185 184 182 178 175 172 168 164 162 156 150 149 145 142 140 135 131 127 124 119 113 108 102 95 89 83 77 72 68 64 61 57 54 52 48 47 46 44 43 41 39 39 37 33 29 26 23 21 19 17 15 14
189 187 185 183 179 175 171 169 165 158 156 153 149 149 146 141 139 136 132 128 122 116 108 102 95 89 84 77 74 69 65 60 56 53 49 47 46 44 43 40 38 38 37 32 29 27 23 21 19 15 13 11
190 189 188 186 182 179 176 171 166 163 161 157 154 155 151 148 146 142 139 134 129 121 113 108 101 94 89 83 79 73 69 64 59 54 50 47 46 45 43 41 38 38 37 32 29 28 24 21 18 14 12 12
191 192 191 189 186 183 180 173 171 169 165 161 160 158 156 154 151 146 142 137 131 124 118 112 106 101 95 90 85 79 75 69 64 58 54 50 48 46 44 42 39 38 36 31 30 28 25 21 16 14 13 16
191 192 192 191 189 188 184 179 177 175 171 166 164 163 161 158 154 150 145 141 135 128 124 118 112 110 104 100 95 89 83 78 75 68 63 60 55 52 49 46 43 41 36 32 32 27 25 22 14 14 12 19
194 194 193 192 191 192 189 185 184 182 178 172 169 167 165 162 158 155 151 146 141 135 131 126 123 122 119 117 108 101 96 91 88 79 74 70 65 59 50 47 44 41 36 32 32 27 25 20 17 12 7 22
198 197 196 195 196 197 194 192 192 190 185 179 176 173 170 170 164 160 159 153 149 146 142 140 143 143 139 133 121 119 113 106 103 91 82 73 73 77 60 52 46 38 32 29 28 27 27 23 20 11 360 17
201 200 200 200 200 201 201 199 198 197 194 188 185 181 179 178 173 169 169 166 162 159 159 160 164 168 161 150 141 141 135 130 134 115 100 84 73 78 83 69 53 41 24 23 24 22 24 25 20 6 354 360
204 204 203 204 204 205 206 206 204 203 203 200 198 195 193 189 184 183 181 181 179 175 179 180 181 186 180 169 165 167 166 165 161 141 131 140 96 72 85 117 66 40 16 17 21 16 16 23 19 1 341 327
205 205 205 205 207 208 210 211 210 208 209 209 208 207 205 201 197 196 196 196 195 192 194 197 198 198 195 189 187 189 191 191 180 164 151 152 149 89 79 94 53 25 16 8 2 3 2 5 13 5 319 298
205 204 204 205 206 209 212 214 214 215 216 215 215 215 214 212 210 209 210 210 209 207 206 208 211 209 208 202 198 201 201 201 198 187 172 164 159 148 119 90 31 17 16 348 298 288 282 302 349 354 283 244
205 204 204 205 207 211 214 214 216 218 220 220 221 221 220 219 219 218 220 220 220 220 217 216 218 219 219 214 210 210 207 206 206 201 192 190 187 178 178 194 257 11 14 326 301 305 260 229 223 244 249 213
207 208 207 207 208 212 214 214 217 221 224 226 227 226 225 223 225 227 227 228 228 228 227 225 224 225 226 224 221 218 217 216 214 214 207 200 202 205 198 202 240 356 19 297 321 317 284 239 215 204 212 209
210 211 211 212 212 214 217 218 222 225 227 231 232 231 230 227 228 231 231 233 234 233 233 232 230 230 230 230 229 225 225 226 224 224 220 213 205 205 213 216 240 287 262 276 308 285 277 309 282 220 198 204
214 215 216 216 216 217 219 222 226 228 230 235 236 236 235 232 230 232 234 235 237 237 238 238 237 235 233 233 234 231 228 230 232 233 231 229 218 209 215 211 223 251 246 249 292 294 292 291 282 271 209 249
216 216 214 214 217 220 223 225 226 228 232 235 236 236 237 235 232 233 235 237 238 239 240 241 241 240 238 238 239 236 232 233 236 240 240 238 233 226 226 218 217 238 249 248 239 256 288 275 273 301 316 317
217 216 214 212 214 217 221 224 224 225 228 231 233 237 239 238 236 235 236 238 240 241 242 244 244 243 243 243 243 242 240 239 238 242 243 242 242 238 236 234 225 232 243 247 238 229 239 244 254 285 301 309
217 216 215 214 215 217 218 220 223 227 230 231 232 239 242 242 241 241 241 241 243 244 244 245 246 246 246 245 246 246 245 245 244 243 244 246 245 243 240 237 233 233 231 235 241 237 233 231 234 245 259 272